[[{"header":{"parameterUnit":"m.s-1","parameterCategory":1,"la1":30.2991,"la2":30.254,"lo1":-89.0895,"lo2":-89.0444,"dy":0.0017,"dx":0.0017,"nx":28,"ny":28,"refTime":"2023-04-25T21:00:00:Z","depth":0,"parameterNumber":2,"parameterNumberName":"U-component_of_WINDS"},"data":[0,0,0,0,0,0,0,0,0,0,0,0,0,0,0,0,0,0,0,0,0,0,0,0,0,0,0,0,0,0,0,0,0,0,0,0,0,0,0,0,0,0,0,0,0,0,0,0,0,0,0,0,0,0,0,0,0,0,-3.6846,-3.6847,0,-3.6896,-3.6896,-3.6897,-3.689,-3.6889,-3.6888,-3.6887,-3.6936,-3.6938,-3.694,0,0,0,0,0,0,0,0,0,0,0,0,0,-3.6747,-3.6749,-3.6846,-3.6847,-3.6848,-3.6896,-3.6896,-3.6897,-3.689,-3.6889,-3.6888,-3.6887,-3.6936,-3.6938,-3.6941,0,0,0,0,0,0,0,0,0,0,0,0,0,-3.6793,-3.675,-3.6846,-3.685,-3.6851,-3.6895,-3.6896,-3.6897,-3.689,-3.6889,-3.6888,-3.6886,-3.6935,-3.6938,-3.6941,-3.6984,0,0,-3.695,-3.6952,0,0,0,0,0,0,0,0,-3.679,-3.6796,-3.6849,-3.685,-3.6851,-3.6885,-3.6879,-3.6926,-3.689,-3.6875,-3.6887,-3.6886,-3.692,-3.6924,-3.6936,-3.6987,-3.6989,-3.6951,-3.6952,-3.6954,-3.6955,0,0,0,0,0,0,0,-3.6787,-3.6794,-3.6866,-3.685,-3.6851,-3.685,-3.6855,-3.6888,-3.6904,-3.6876,-3.6876,-3.6882,-3.6921,-3.6933,-3.6937,-3.699,-3.6951,-3.6953,-3.6955,-3.6956,-3.708,-3.7082,0,0,0,0,0,0,-3.6783,-3.6792,-3.6864,-3.6867,-3.6817,-3.6852,-3.6858,-3.6875,-3.6904,-3.6907,-3.6883,-3.6881,-3.6929,-3.6934,-3.6939,-3.6992,-3.6954,-3.6957,-3.6958,-3.7079,-3.7081,-3.7082,0,0,0,0,0,0,-3.6781,-3.679,-3.6862,-3.683,-3.6839,-3.6855,-3.6875,-3.6877,-3.689,-3.6909,-3.6911,-3.6893,-3.6928,-3.6935,-3.6974,-3.6994,-3.6958,-3.6961,-3.7077,-3.7079,-3.7081,-3.7099,0,0,0,0,0,0,-3.6778,-3.6789,-3.6805,-3.683,-3.684,-3.6896,-3.6876,-3.6879,-3.6895,-3.6894,-3.6919,-3.6922,-3.6927,-3.6969,-3.6977,-3.6998,-3.6963,-3.7075,-3.7078,-3.7081,-3.7097,-3.7102,-3.7106,0,0,0,0,0,-3.6775,-3.6807,-3.6806,-3.6815,-3.6861,-3.6897,-3.6903,-3.6909,-3.6897,-3.6914,-3.6926,-3.6921,-3.6991,-3.6973,-3.6982,-3.7004,-3.7074,-3.7077,-3.708,-3.7095,-3.7101,-3.7106,0,0,0,0,0,0,-3.6783,-3.6811,-3.6809,-3.6851,-3.6872,-3.6896,-3.6916,-3.6915,-3.6939,-3.6937,-3.6944,-3.6949,-3.6989,-3.7001,-3.698,-3.7049,-3.7031,-3.7036,-3.7039,-3.7045,-3.7049,-3.7044,-3.6966,0,0,0,0,0,-3.679,-3.6817,-3.684,-3.6875,-3.6885,-3.69,-3.6915,-3.6919,-3.694,-3.6949,-3.6964,-3.6985,-3.7012,-3.7029,-3.7055,-3.71,-3.7105,-3.7119,-3.7124,-3.7127,-3.7131,-3.7156,-3.7163,-3.7093,-3.7093,-3.7093,0,0,-3.6804,-3.6823,-3.6839,-3.6877,-3.6893,-3.6921,-3.6907,-3.6936,-3.6957,-3.6953,-3.6991,-3.7003,-3.7027,-3.707,-3.7089,-3.708,-3.7152,-3.7131,-3.7134,-3.7136,-3.716,-3.7167,-3.7173,-3.7095,-3.7095,-3.7094,0,0,-3.6844,-3.6861,-3.6892,-3.691,-3.6936,-3.6945,-3.6953,-3.6978,-3.6986,-3.7025,-3.7023,-3.7048,-3.7094,-3.7112,-3.7127,-3.7177,-3.7173,-3.7186,-3.7208,-3.7233,-3.7238,-3.7243,-3.7261,-3.7267,-3.719,-3.719,-3.719,0,-3.6858,-3.69,-3.6908,-3.6939,-3.6956,-3.6956,-3.6988,-3.7004,-3.7037,-3.7049,-3.704,-3.7099,-3.7115,-3.7162,-3.7174,-3.7187,-3.7196,-3.7181,-3.7237,-3.7242,-3.7247,-3.7264,-3.727,-3.7191,-3.7191,-3.7191,-3.7191,0,-3.6916,-3.6946,-3.6968,-3.7,-3.702,-3.7051,-3.7065,-3.7084,-3.7087,-3.7098,-3.7138,-3.7159,-3.7189,-3.7201,-3.7203,-3.7249,-3.7243,-3.7236,-3.7217,-3.7255,-3.7271,-3.7277,-3.7193,-3.7192,-3.7192,-3.7192,0,0,-3.6959,-3.6999,-3.7007,-3.7022,-3.7052,-3.7075,-3.7107,-3.7138,-3.7154,-3.7178,-3.7205,-3.7246,-3.724,-3.7257,-3.7262,-3.7284,-3.7323,-3.7274,-3.7275,-3.7282,-3.7375,-3.7379,-3.7386,-3.7322,-3.7323,-3.7324,-3.7372,0,-3.7001,-3.7058,-3.7068,-3.7117,-3.7145,-3.7147,-3.7175,-3.7197,-3.7209,-3.7234,-3.7248,-3.7276,-3.7267,-3.7277,-3.7299,-3.7314,-3.7342,-3.7311,-3.7347,-3.7348,-3.7339,-3.7394,-3.7398,-3.7442,-3.7379,-3.738,-3.7381,0,-3.7057,-3.7083,-3.7135,-3.7164,-3.7176,-3.72,-3.723,-3.7255,-3.7281,-3.7288,-3.7309,-3.7312,-3.7347,-3.7329,-3.7377,-3.7356,-3.7372,-3.7381,-3.7383,-3.7385,-3.7365,-3.7397,-3.7457,-3.7463,-3.7391,-3.739,-3.7389,0,-3.7083,-3.7131,-3.7169,-3.7182,-3.7216,-3.7234,-3.7249,-3.7273,-3.7292,-3.7319,-3.7331,-3.7361,-3.7377,-3.7401,-3.7413,-3.7399,-3.746,-3.7443,-3.7466,-3.7466,-3.7477,-3.7476,-3.7539,-3.749,-3.749,-3.749,-3.749,0,-3.7127,-3.7159,-3.7181,-3.7204,-3.724,-3.7253,-3.7288,-3.7303,-3.7326,-3.7352,-3.7356,-3.7381,-3.7396,-3.7423,-3.7433,-3.7471,-3.7478,-3.7485,-3.7487,-3.7484,-3.7483,-3.7493,-3.749,-3.7492,-3.7491,-3.7491,-3.749,0,-3.7161,-3.7177,-3.7218,-3.7248,-3.7256,-3.7282,-3.7307,-3.733,-3.7344,-3.7377,-3.7386,-3.7407,-3.7439,-3.7455,-3.7494,-3.7501,-3.7544,-3.7545,-3.7535,-3.7536,-3.7558,-3.7555,-3.7628,-3.7638,-3.7584,-3.7585,-3.7585,0,-3.7187,-3.7212,-3.7245,-3.7263,-3.7279,-3.7308,-3.7328,-3.7342,-3.7362,-3.7395,-3.7414,-3.7447,-3.7474,-3.7526,-3.7545,-3.7576,-3.7577,-3.76,-3.7581,-3.7578,-3.7576,-3.7574,-3.7576,-3.7603,-3.7603,-3.7604,-3.7604,0,-3.7233,-3.724,-3.7268,-3.73,-3.7323,-3.7348,-3.7373,-3.7388,-3.7406,-3.7429,-3.7463,-3.7484,-3.7526,-3.7559,-3.7592,-3.7608,-3.7609,-3.7611,-3.7618,-3.7613,-3.7607,-3.761,-3.7543,-3.7608,-3.7608,-3.7607,-3.7607,-3.7607,-3.7263,-3.7286,-3.7313,-3.7344,-3.7365,-3.7389,-3.7412,-3.7429,-3.7458,-3.7493,-3.7501,-3.7536,-3.7564,-3.7608,-3.7626,-3.7655,-3.7649,-3.7659,-3.7661,-3.7663,-3.7664,-3.7604,-3.7661,-3.7661,-3.7661,-3.7661,-3.766,0,-3.7308,-3.7327,-3.7356,-3.7391,-3.7416,-3.7417,-3.7445,-3.7466,-3.7498,-3.7523,-3.7551,-3.759,-3.7623,-3.7646,-3.7679,-3.7698,-3.7699,-3.7706,-3.7704,-3.7707,-3.7667,-3.7658,-3.7704,-3.7704,-3.7704,-3.7704,-3.7704,-3.7704,-3.7335,-3.7373,-3.7384,-3.7433,-3.7451,-3.7487,-3.7503,-3.7525,-3.7546,-3.759,-3.7617,-3.7633,-3.7657,-3.7693,-3.7723,-3.7729,-3.7741,-3.7748,-3.7753,-3.7715,-3.771,-3.7706,-3.7697,-3.775,-3.775,-3.7791,-3.7791,-3.7791]},{"header":{"parameterUnit":"m.s-1","parameterCategory":1,"la1":30.2991,"la2":30.254,"lo1":-89.0895,"lo2":-89.0444,"dy":0.0017,"dx":0.0017,"nx":28,"ny":28,"refTime":"2023-04-25T21:00:00:Z","depth":0,"parameterNumber":3,"parameterNumberName":"V-component_of_WINDS"},"data":[0,0,0,0,0,0,0,0,0,0,0,0,0,0,0,0,0,0,0,0,0,0,0,0,0,0,0,0,0,0,0,0,0,0,0,0,0,0,0,0,0,0,0,0,0,0,0,0,0,0,0,0,0,0,0,0,0,0,2.8837,2.8837,0,2.887,2.887,2.8871,2.8965,2.8967,2.8969,2.8971,2.8997,2.8996,2.8995,0,0,0,0,0,0,0,0,0,0,0,0,0,2.8848,2.8848,2.8836,2.8837,2.8837,2.887,2.887,2.8871,2.8964,2.8967,2.8969,2.8972,2.8998,2.8996,2.8995,0,0,0,0,0,0,0,0,0,0,0,0,0,2.8858,2.8847,2.8836,2.8888,2.8893,2.887,2.887,2.8871,2.8964,2.8967,2.897,2.8973,2.8998,2.8996,2.8995,2.8922,0,0,2.8989,2.8988,0,0,0,0,0,0,0,0,2.8858,2.8858,2.888,2.8885,2.889,2.8917,2.8885,2.8888,2.8963,2.8937,2.8971,2.8974,2.8967,2.8968,2.8968,2.8923,2.8924,2.8989,2.8988,2.8987,2.8987,0,0,0,0,0,0,0,2.8857,2.8857,2.885,2.888,2.8886,2.8908,2.8913,2.8885,2.8934,2.8939,2.8946,2.8949,2.8971,2.8969,2.8969,2.8925,2.8989,2.8987,2.8986,2.8986,2.8824,2.8821,0,0,0,0,0,0,2.885,2.8856,2.8849,2.8851,2.8881,2.8905,2.8911,2.8905,2.8935,2.8942,2.8946,2.8953,2.8971,2.8971,2.897,2.8888,2.8987,2.8985,2.8984,2.8827,2.8823,2.882,0,0,0,0,0,0,2.8849,2.8848,2.8847,2.8855,2.8857,2.8902,2.8894,2.8904,2.8902,2.894,2.8949,2.8936,2.8973,2.8973,2.8934,2.889,2.8985,2.8983,2.8831,2.8826,2.8822,2.8723,0,0,0,0,0,0,2.8849,2.8848,2.8821,2.8854,2.8856,2.8812,2.8892,2.8902,2.89,2.8909,2.8933,2.894,2.8975,2.8936,2.8932,2.889,2.8981,2.8835,2.8829,2.8823,2.873,2.8715,2.8702,0,0,0,0,0,2.885,2.879,2.8819,2.8818,2.8824,2.8809,2.881,2.8854,2.8896,2.887,2.8894,2.8939,2.8896,2.8932,2.8928,2.8884,2.8838,2.883,2.8823,2.8736,2.8718,2.8703,0,0,0,0,0,0,2.8748,2.8795,2.8828,2.8778,2.8789,2.8825,2.8793,2.8833,2.8831,2.8839,2.8893,2.8897,2.8851,2.8864,2.8902,2.8816,2.8875,2.8866,2.8809,2.8792,2.8779,2.8776,2.898,0,0,0,0,0,2.872,2.8706,2.8747,2.8698,2.8703,2.8747,2.8741,2.8775,2.8788,2.8792,2.8814,2.8823,2.8812,2.8803,2.8794,2.8733,2.8739,2.8701,2.8687,2.8676,2.8667,2.8637,2.8621,2.8796,2.8796,2.8796,0,0,2.8661,2.8685,2.8672,2.8679,2.8691,2.8674,2.875,2.8727,2.8715,2.8788,2.8754,2.877,2.8784,2.8734,2.8713,2.8743,2.8621,2.8666,2.8657,2.8655,2.8628,2.8611,2.8596,2.8791,2.8792,2.8793,0,0,2.8546,2.8563,2.8525,2.8537,2.8557,2.8587,2.8578,2.8608,2.8623,2.8591,2.8646,2.863,2.861,2.8618,2.8619,2.8509,2.855,2.8505,2.8432,2.8402,2.8388,2.8376,2.8337,2.8323,2.8497,2.8497,2.8496,0,2.847,2.8448,2.85,2.8476,2.8477,2.8546,2.8508,2.8516,2.853,2.8529,2.8563,2.8541,2.8554,2.8508,2.8482,2.848,2.8471,2.8502,2.8386,2.8375,2.8364,2.8328,2.8313,2.8491,2.8492,2.8492,2.8493,0,2.8354,2.8338,2.8305,2.8321,2.8318,2.8286,2.8333,2.8324,2.8358,2.8384,2.835,2.837,2.8368,2.8359,2.8391,2.8317,2.8336,2.8377,2.8437,2.8341,2.8308,2.8295,2.8483,2.8485,2.8487,2.8488,0,0,2.8173,2.8221,2.8208,2.8217,2.8245,2.8233,2.8204,2.8205,2.8197,2.8204,2.8182,2.8164,2.8204,2.8205,2.8239,2.8212,2.8125,2.8257,2.8258,2.8232,2.8047,2.8015,2.7998,2.8154,2.8151,2.8149,2.8046,0,2.8065,2.8022,2.8069,2.8015,2.8001,2.8068,2.8043,2.8057,2.8081,2.8071,2.8097,2.8084,2.8137,2.8139,2.8116,2.8141,2.8089,2.8149,2.8132,2.813,2.8126,2.7981,2.7947,2.7848,2.8033,2.8031,2.8029,0,2.7932,2.7938,2.7884,2.7918,2.7913,2.7891,2.7896,2.7887,2.7903,2.7923,2.7926,2.7968,2.7941,2.8,2.7965,2.8005,2.8,2.8012,2.8009,2.8009,2.8073,2.7976,2.7818,2.7803,2.8009,2.8011,2.8012,0,2.7807,2.7801,2.7768,2.7774,2.7812,2.7794,2.7809,2.7829,2.7827,2.7832,2.7831,2.783,2.783,2.7828,2.7869,2.7908,2.7828,2.789,2.7843,2.7841,2.7822,2.7822,2.766,2.7819,2.7819,2.782,2.782,0,2.7681,2.7645,2.7713,2.7692,2.7655,2.7709,2.7669,2.769,2.7708,2.7692,2.7749,2.7732,2.7787,2.7776,2.7808,2.7774,2.7773,2.7787,2.7796,2.7782,2.778,2.7779,2.7787,2.7816,2.7817,2.7817,2.7818,0,2.7534,2.7578,2.7547,2.7587,2.7596,2.7566,2.76,2.7582,2.7611,2.759,2.7589,2.7633,2.7623,2.7664,2.766,2.7682,2.7631,2.7651,2.7626,2.7632,2.7582,2.7587,2.7414,2.7394,2.7565,2.7564,2.7562,0,2.7451,2.7426,2.7464,2.7459,2.7472,2.7462,2.7462,2.7514,2.7511,2.753,2.751,2.7505,2.7505,2.7486,2.7516,2.7514,2.7535,2.7474,2.7534,2.7522,2.7534,2.7535,2.7533,2.7461,2.7459,2.7457,2.7456,0,2.7299,2.7323,2.7321,2.7327,2.7326,2.7332,2.7343,2.7335,2.7391,2.7385,2.7377,2.7377,2.7375,2.737,2.7375,2.7388,2.7431,2.7437,2.7426,2.7412,2.7398,2.7406,2.7592,2.7441,2.7442,2.7443,2.7444,2.7445,2.7182,2.7163,2.7188,2.7184,2.7199,2.7207,2.7194,2.7222,2.7218,2.7222,2.7253,2.724,2.7259,2.727,2.7279,2.7269,2.7297,2.7281,2.7277,2.7272,2.7263,2.7401,2.727,2.727,2.7271,2.7271,2.7271,0,2.7033,2.7053,2.705,2.7064,2.7061,2.7106,2.712,2.7114,2.7102,2.7117,2.7117,2.7108,2.7104,2.7136,2.7136,2.7121,2.7141,2.7119,2.712,2.7123,2.7238,2.7248,2.7103,2.7103,2.7103,2.7103,2.7103,2.7104,2.6955,2.6927,2.6953,2.6932,2.6952,2.6942,2.6946,2.6955,2.6967,2.6957,2.6955,2.6976,2.6998,2.7,2.6998,2.7008,2.7005,2.6976,2.6992,2.7098,2.7115,2.713,2.714,2.6975,2.6975,2.6878,2.6877,2.6877]}]]